Suggestion Search

Define a bounding box (note: it will not wrap North/South over poles). If the range is zero degrees, a bounding box will not be used to constrain the search.

Centered On °   °

Match text in the suggestion title, science rationale or special notes. The search is case-insensitive. % is a wildcard (_ for a single character).

Find
Search

You may select science themes to limit query, otherwise suggestions from all themes will be returned.

Multiple values may be selected (shift + click).

  Rows per page
24,650 records found, displaying 1 to 100.[First/Prev] 1, 2, 3, 4, 5, 6, 7, 8 [Next/Last]
ID Suggestion Title Latitude Longitude Repeat Created Observation ID username
185282 Channels in Enipeus Vallis 36.634 267.060 1 2020-08-04 jimmars
185280 Channels in Enipeus Vallis 38.359 266.776 1 2020-08-04 jimmars
185278 Slope monitoring for RSL -10.578 129.967 8 2020-08-04 dstillman
185276 Slope monitoring for RSL -10.578 129.967 8 2020-08-04 dstillman
185274 Slope monitoring for RSL -10.578 129.967 8 2020-08-04 dstillman
185272 Slope monitoring for RSL -10.578 129.967 8 2020-08-04 dstillman
185270 Slope monitoring for RSL -10.578 129.967 8 2020-08-04 dstillman
185268 Slope monitoring for RSL -10.578 129.967 8 2020-08-04 dstillman
185266 Slope monitoring for RSL -10.578 129.967 8 2020-08-04 dstillman
185264 Slope monitoring for RSL -10.578 129.967 8 2020-08-04 dstillman
185262 Crater with bench in Enipeus Vallis 37.957 266.828 1 2020-08-04 jimmars
185260 Crater with mesa in Enipeus Vallis 37.983 266.756 1 2020-08-04 jimmars
185258 Streamlined forms in Enipeus Vallis 37.305 267.182 1 2020-08-04 jimmars
185256 Streamlined forms in Enipeus Vallis 37.298 266.916 1 2020-08-04 jimmars
185234 Channel near Enipeus Vallis 36.205 266.983 1 2020-08-03 jimmars
185232 Crater in northern mid-latitudes 36.391 267.535 1 2020-08-03 jimmars
185230 Layers in crater in northern mid-latitudes 36.523 267.365 1 2020-08-03 jimmars
185228 Channels in northern mid-latitudes 34.498 267.760 1 2020-08-03 jimmars
185226 Channel in northern mid-latitudes 36.420 268.776 1 2020-08-03 jimmars
185220 Channel in northern mid-latitudes 36.246 268.562 1 2020-08-03 jimmars
185192 Layers in ridge in northern mid-latitudes 34.815 268.590 1 2020-08-03 jimmars
185180 Lava flow in northern mid-latitudes 33.484 268.842 1 2020-08-03 jimmars
185170 Lava flow in northern mid-latitudes 37.675 269.077 1 2020-08-03 jimmars
185168 Lava flowing into crater in northern mid-latitudes 37.566 269.294 1 2020-08-03 jimmars
185166 Layers in crater in northern mid-latitudes 37.866 268.855 1 2020-08-03 jimmars
185164 Lava flow in northern mid-latitudes 37.570 268.745 1 2020-08-03 jimmars
185162 Rings in crater ejecta in northern mid-latitudes 37.160 269.272 1 2020-08-03 jimmars
185160 Lava flow in northern mid-latitudes 36.195 268.940 1 2020-08-03 jimmars
185158 Gamboa crater dune repeat imaging 40.721 315.701 3 2020-08-02 mattchoj
185156 Gamboa crater dune repeat imaging 40.721 315.701 3 2020-08-02 mattchoj
185154 Gamboa crater dune repeat imaging 40.721 315.701 3 2020-08-02 mattchoj
185152 Depression in northern mid-latitudes 35.856 271.137 1 2020-08-01 jimmars
185150 Double crater in northern mid-latitudes 35.611 270.916 1 2020-08-01 jimmars
185148 Channel in northern mid-latitudes 35.033 271.090 1 2020-08-01 jimmars
185146 Ridge in northern mid-latitudes 34.580 270.920 1 2020-08-01 jimmars
185144 Grooves in ejecta in northern mid-latitudes 33.756 270.905 1 2020-08-01 jimmars
185142 Craters in ejecta in northern mid-latitudes 34.016 270.905 1 2020-08-01 jimmars
185140 Trough in northern mid-latitudes 32.328 272.560 1 2020-08-01 jimmars
185138 Layers in crater wall in Mareotis Fossae 34.134 270.967 1 2020-07-31 jimmars
185136 Slope monitoring for RSL -9.174 21.834 8 2020-07-31 dstillman
185134 Slope monitoring for RSL -9.174 21.834 8 2020-07-31 dstillman
185132 Slope monitoring for RSL -9.174 21.834 8 2020-07-31 dstillman
185130 Slope monitoring for RSL -9.174 21.834 8 2020-07-31 dstillman
185128 Slope monitoring for RSL -9.174 21.834 8 2020-07-31 dstillman
185126 Slope monitoring for RSL -9.174 21.834 8 2020-07-31 dstillman
185124 Slope monitoring for RSL -9.174 21.834 8 2020-07-31 dstillman
185122 Slope monitoring for RSL -9.174 21.834 8 2020-07-31 dstillman
185120 Volcanic vent in Tempe Fossae region 33.317 272.692 1 2020-07-31 jimmars
185118 Ridges in Tempe Fossae region 32.981 272.466 1 2020-07-31 jimmars
185116 Trough in northern mid-latitudes 32.584 272.775 1 2020-07-31 jimmars
185114 Ridges in Tempe Fossae region 32.967 273.290 1 2020-07-31 jimmars
185112 Ridges in Tempe Fossae region 33.069 273.376 1 2020-07-31 jimmars
185110 Ridges in Tempe Fossae region 33.032 273.395 1 2020-07-31 jimmars
185108 Ridges in Tempe Fossae region 32.106 273.777 1 2020-07-31 jimmars
185106 Crater_Zc_erosion_albedo 2.403 3.705 1 2020-07-31 kseelos
185104 Ridge in Tempe Fossae region 31.877 273.617 1 2020-07-30 jimmars
185102 Small channel in Tempe Fossae region 31.163 273.914 1 2020-07-30 jimmars
185100 Channels in crater in Tempe Fossae region 30.930 273.796 1 2020-07-30 jimmars
185098 Possible fan in Tempe Fossae 30.544 273.443 1 2020-07-30 jimmars
185096 Channels in crater in Tempe Fossae region 30.385 273.518 1 2020-07-30 jimmars
185094 Rings in crater ejecta in Tempe Fossae region 30.419 273.668 1 2020-07-30 jimmars
185092 Fresh crater ejecta in Tempe Fossae region 30.285 273.752 1 2020-07-30 jimmars
185089 Slope sample -36.626 154.347 1 2020-07-30 vjbray
185070 Mesas in Nilus Chaos 24.860 281.529 1 2020-07-29 jimmars
185068 Secondary Craters in Nilus Chaos region 24.407 281.499 1 2020-07-29 jimmars
185066 Layers in crater wall in Nilus Chaos 24.568 281.543 1 2020-07-29 jimmars
185064 Troughs in Nilus Chaos 25.823 281.455 1 2020-07-29 jimmars
185062 Slump along scarp in Nilus Chaos 24.972 281.608 1 2020-07-29 jimmars
185060 Layers in crater in Nilus Chaos 25.166 281.776 1 2020-07-29 jimmars
185056 Dune Monitoring in Lyot Crater - NML094 48.955 29.546 2 2020-07-28 JWidmer22
185050 Kasei Valles lava 26.498 294.749 1 2020-07-28 dundas
185048 Kasei Valles lava 26.838 293.916 1 2020-07-28 dundas
185046 Kasei Valles lava 26.540 290.652 1 2020-07-28 dundas
185044 Mesa with moat 28.097 286.526 1 2020-07-28 dundas
185042 Mesa with moat 27.764 286.344 1 2020-07-28 dundas
185040 Deposit in Bahram Vallis 20.876 301.824 1 2020-07-28 dundas
184972 Layers in wall of crater near Nilus Chaos 25.000 282.405 1 2020-07-27 jimmars
184950 Channels near ejecta 23.702 282.306 1 2020-07-27 jimmars
184932 Lava flows near Nilus Chaos 21.606 282.822 1 2020-07-27 jimmars
184930 Possible sources of lava near Nilus Chaos 21.564 282.903 1 2020-07-27 jimmars
184928 Lava flowing in troughs near Nilus Chaos 21.469 282.888 1 2020-07-27 jimmars
184926 Lava flow moving into crater near Nilus Chaos 21.077 282.740 1 2020-07-27 jimmars
184924 Lava flow moving down trough near Nilus Chaos 21.082 282.960 1 2020-07-27 jimmars
184922 Lava flow interacting with topography near Nilus Chaos 21.015 283.002 1 2020-07-27 jimmars
184920 Crater with bench near Nilus Chaos 23.604 282.599 1 2020-07-27 jimmars
184918 Arabia Terra with stair-stepped hills and dark dunes 8.809 358.951 7 2020-07-26 mattchoj
184916 Lava flows and craters near Nilus Chaos 20.992 282.873 1 2020-07-26 jimmars
184914 Eject lobes of northern mid-latitude crater 26.028 282.483 1 2020-07-26 jimmars
184912 Layers in crater wall in northern mid-latitudes 29.721 282.092 1 2020-07-26 jimmars
184910 Streaks in northern mid-latitude crater 28.751 282.191 1 2020-07-26 jimmars
184908 Defrosting dune transition and elongated barchans -58.989 16.831 4 2020-07-26 cverba
184904 Troughs near Nilus Chaos 26.684 283.874 1 2020-07-26 jimmars
184902 Channels from trough in Nilus Chaos 26.667 284.071 1 2020-07-26 jimmars
184900 Curved channel near Nilus Chaos 25.528 284.480 1 2020-07-26 jimmars
184896 Layers in crater wall in northern mid-latitudes 28.295 292.610 1 2020-07-25 jimmars
184894 Mound with ridges in Labeatis Fossae region 24.809 285.020 1 2020-07-25 jimmars
184892 Channels in Labeatis Fossae region 25.859 285.292 1 2020-07-25 jimmars
184890 Lava ridges in Labeatis Fossae region 26.437 284.954 1 2020-07-25 jimmars
184888 Lava ridges in Labeatis Fossae region 27.707 284.804 1 2020-07-25 jimmars
184886 Layers in trough in Labeatis Fossae region 28.240 284.606 1 2020-07-25 jimmars

Each suggestion is given a unique ID. A stereo suggestion will be made into a pair at the discretion of the Science Theme Lead.

Suggestion title.

Latitudes are expressed in planetocentric degrees.

Longitude are measured in degrees and range east from 0 to 360.

1 for a single suggestion, STEREO for a stereo suggestion, otherwise the number of suggestions in a seasonal or other repeat set.

The date on which the suggestion was created.

If the suggestion has been retired, a link to the observation page.

The username of the suggester.